Weather History for KDTS - February, 2014

Change the Weather History Date:

Friday, February 7, 2014

  Actual Average Record
Temperature  
Mean Temperature 48 °F -  
Max Temperature 60 °F 59 °F 72 °F (1999)
Min Temperature 36 °F 45 °F 36 °F (2014)
Degree Days  
Heating Degree Days 17    
Moisture  
Dew Point 36 °F    
Average Humidity 66    
Maximum Humidity 83    
Minimum Humidity 42    
Precipitation  
Precipitation 0.02 in - - ()
Sea Level Pressure  
Sea Level Pressure 30.25 in    
Wind  
Wind Speed 8 mph (NNE)    
Max Wind Speed 13 mph    
Max Gust Speed -    
Visibility 9 miles    
Events Rain    
Averages and records for this station are not official NWS values.
T = Trace of Precipitation, MM = Missing Value Source: NWS Daily Summary

Daily Weather History Graph

Daily Weather History Graph

Search for Another Location

Airport or City:

Trip Planner

Search our weather history database for the weather conditions in past years. The results will help you decide how hot, cold, wet, or windy it might be!

Date:

Astronomy

Feb. 07, 2014 Rise Set
Actual Time 6:32 AM CST 5:27 PM CST
Civil Twilight 6:07 AM CST 5:52 PM CST
Nautical Twilight 5:39 AM CST 6:21 PM CST
Astronomical Twilight 5:11 AM CST 6:49 PM CST
Moon 11:42 AM CST (2/7) 12:44 AM CST (2/7)
Length of Visible Light 11h 44m
Length of Day
10h 54m
First Quarter, 59% of the Moon is Illuminated
Feb 7
First Quarter
Feb 14
Full
Feb 22
Last Quarter
Mar 1
New
Mar 8
First Quarter

Hourly Weather History & Observations

Time (CST) Temp. Windchill Dew Point Humidity Pressure Visibility Wind Dir Wind Speed Gust Speed Precip Events Conditions
12:53 AM 37.9 °F 32.1 °F 33.1 °F 83% 30.27 in 8.0 mi North 8.1 mph - N/A   Clear
1:53 AM 37.0 °F 31.6 °F 32.0 °F 82% 30.27 in 7.0 mi North 6.9 mph - N/A   Clear
2:53 AM 37.0 °F 30.4 °F 32.0 °F 82% 30.27 in 7.0 mi North 9.2 mph - N/A   Clear
3:53 AM 37.0 °F 31.0 °F 32.0 °F 82% 30.26 in 8.0 mi North 8.1 mph - N/A   Clear
4:53 AM 37.0 °F 28.9 °F 30.9 °F 79% 30.27 in 8.0 mi North 12.7 mph - N/A   Clear
5:53 AM 37.0 °F 30.4 °F 30.9 °F 79% 30.28 in 9.0 mi NNE 9.2 mph - N/A   Clear
6:53 AM 36.0 °F 30.3 °F 30.0 °F 79% 30.32 in 7.0 mi NNE 6.9 mph - N/A   Clear
7:53 AM 39.0 °F 32.8 °F 30.9 °F 73% 30.31 in 8.0 mi NNE 9.2 mph - N/A   Clear
8:53 AM 42.1 °F 37.1 °F 33.1 °F 70% 30.31 in 10.0 mi NE 8.1 mph - N/A   Clear
9:53 AM 46.9 °F - 35.1 °F 63% 30.31 in 10.0 mi North 6.9 mph - N/A   Clear
10:53 AM 50.0 °F - 36.0 °F 59% 30.30 in 10.0 mi North 8.1 mph - N/A   Clear
11:53 AM 55.0 °F - 37.0 °F 51% 30.27 in 10.0 mi North 10.4 mph - N/A   Clear
12:53 PM 57.9 °F - 37.0 °F 46% 30.23 in 10.0 mi North 8.1 mph - N/A   Clear
1:53 PM 59.0 °F - 37.9 °F 46% 30.21 in 10.0 mi North 8.1 mph - N/A   Clear
2:53 PM 60.1 °F - 37.0 °F 42% 30.19 in 10.0 mi NNE 6.9 mph - N/A   Clear
3:53 PM 59.0 °F - 37.9 °F 46% 30.19 in 10.0 mi NE 4.6 mph - N/A   Clear
4:53 PM 57.9 °F - 39.9 °F 51% 30.21 in 10.0 mi NNE 5.8 mph - N/A   Clear
5:53 PM 54.0 °F - 39.9 °F 59% 30.22 in 10.0 mi North 4.6 mph - N/A   Partly Cloudy
6:53 PM 53.1 °F - 39.9 °F 61% 30.19 in 10.0 mi Variable 3.5 mph - N/A   Clear
7:53 PM 52.0 °F - 39.9 °F 63% 30.21 in 10.0 mi NE 3.5 mph - N/A   Mostly Cloudy
8:53 PM 52.0 °F - 41.0 °F 66% 30.22 in 10.0 mi NE 3.5 mph - N/A   Overcast
9:53 PM 52.0 °F - 41.0 °F 66% 30.22 in 10.0 mi North 3.5 mph - N/A   Overcast
10:53 PM 52.0 °F - 41.0 °F 66% 30.20 in 10.0 mi NNE 4.6 mph - N/A   Overcast
11:53 PM 48.9 °F - 43.0 °F 80% 30.20 in 7.0 mi North 6.9 mph - 0.02 in Rain Light Rain